Weather History for Jefferson City, MO

Change the Weather History Date:

Tuesday, November 13, 2012

  Actual Average Record
Temperature  
Mean Temperature 41 °F -  
Max Temperature 54 °F 54 °F 82 °F (1999)
Min Temperature 28 °F 32 °F 3 °F (1986)
Degree Days  
Heating Degree Days 24    
Moisture  
Dew Point 24 °F    
Average Humidity 50    
Maximum Humidity 78    
Minimum Humidity 29    
Precipitation  
Precipitation 0.00 in - - ()
Sea Level Pressure  
Sea Level Pressure 30.44 in    
Wind  
Wind Speed 2 mph (ESE)    
Max Wind Speed 6 mph    
Max Gust Speed -    
Visibility 10 miles    
Events      
Averages and records for this station are not official NWS values.
T = Trace of Precipitation, MM = Missing Value Source: NWS Daily Summary

Daily Weather History Graph

Daily Weather History Graph

Search for Another Location

Airport:

Trip Planner

Search our weather history database for the weather conditions in past years. The results will help you decide how hot, cold, wet, or windy it might be!

Date:

Astronomy

Nov. 13, 2012 Rise Set
Actual Time 6:48 AM CST 4:56 PM CST
Civil Twilight 6:20 AM CST 5:24 PM CST
Nautical Twilight 5:48 AM CST 5:56 PM CST
Astronomical Twilight 5:17 AM CST 6:28 PM CST
Moon 6:27 AM CST (11/13) 4:50 PM CST (11/13)
Length of Visible Light 11h 04m
Length of Day
10h 07m
Waning Crescent, 0% of the Moon is Illuminated
Nov 13
Waning Crescent
Nov 13
New
Nov 20
First Quarter
Nov 28
Full
Dec 6
Last Quarter

Hourly Weather History & Observations

Time (CST) Temp. Windchill Dew Point Humidity Pressure Visibility Wind Dir Wind Speed Gust Speed Precip Events Conditions
12:53 AM 28.9 °F - 23.0 °F 78% 30.45 in 10.0 mi Calm Calm - N/A   Clear
1:53 AM 30.0 °F - 21.9 °F 72% 30.45 in 10.0 mi Calm Calm - N/A   Clear
2:53 AM 35.1 °F - 21.9 °F 59% 30.46 in 10.0 mi Calm Calm - N/A   Clear
3:53 AM 28.9 °F - 21.0 °F 72% 30.47 in 10.0 mi Calm Calm - N/A   Clear
4:53 AM 30.9 °F - 21.0 °F 67% 30.47 in 10.0 mi Calm Calm - N/A   Clear
5:53 AM 37.9 °F 34.4 °F 19.9 °F 48% 30.49 in 10.0 mi SE 4.6 mph - N/A   Clear
6:53 AM 39.0 °F 36.8 °F 23.0 °F 53% 30.50 in 10.0 mi ESE 3.5 mph - 0.00 in   Clear
7:53 AM 37.9 °F 34.4 °F 24.1 °F 57% 30.51 in 10.0 mi ESE 4.6 mph - 0.00 in   Clear
8:53 AM 46.0 °F 44.8 °F 27.0 °F 47% 30.51 in 10.0 mi ESE 3.5 mph - N/A   Clear
9:53 AM 51.1 °F - 28.9 °F 43% 30.50 in 10.0 mi ESE 3.5 mph - N/A   Clear
10:53 AM - - - N/A% 30.51 in 10.0 mi Calm Calm - N/A   Clear
11:53 AM 48.9 °F - 24.1 °F 38% 30.46 in 10.0 mi Variable 3.5 mph - N/A   Clear
12:53 PM 51.1 °F - 21.0 °F 31% 30.43 in 10.0 mi Variable 5.8 mph - N/A   Clear
1:53 PM 53.1 °F - 21.0 °F 29% 30.40 in 10.0 mi Calm Calm - N/A   Clear
2:53 PM 54.0 °F - 21.9 °F 29% 30.38 in 10.0 mi Variable 3.5 mph - 0.00 in   Clear
3:53 PM 51.1 °F - 24.1 °F 35% 30.39 in 10.0 mi SE 4.6 mph - N/A   Clear
4:53 PM 48.0 °F - 26.1 °F 42% 30.38 in 10.0 mi East 5.8 mph - N/A   Clear
5:53 PM 44.1 °F 41.5 °F 26.1 °F 49% 30.38 in 10.0 mi ESE 4.6 mph - N/A   Clear
6:53 PM 43.0 °F 40.3 °F 26.1 °F 51% 30.38 in 10.0 mi ESE 4.6 mph - N/A   Clear
7:53 PM 42.1 °F 38.4 °F 26.1 °F 53% 30.41 in 10.0 mi SE 5.8 mph - N/A   Clear
8:53 PM 43.0 °F 39.5 °F 24.1 °F 47% 30.42 in 10.0 mi East 5.8 mph - N/A   Clear
9:53 PM 39.0 °F 34.8 °F 25.0 °F 57% 30.42 in 10.0 mi ESE 5.8 mph - N/A   Clear
10:53 PM 39.9 °F 36.7 °F 23.0 °F 51% 30.45 in 10.0 mi ESE 4.6 mph - N/A   Clear
11:53 PM 39.0 °F 35.7 °F 23.0 °F 53% 30.42 in 10.0 mi East 4.6 mph - N/A   Clear